Location: Miss�
(46.9484°N, 0.1922°W)
Time: 02:13:29
(UTC+00:00)

Cosmos 1470 Rocket - Pass Details

Date: 02 March 2021
Orbit: 603 x 634 km, 82.5° (Epoch: 17 April)

Event Time Altitude Azimuth Distance (km) Brightness Sun altitude
Rises 18:18:11 0° 160° (SSE) 2,918 6.8 -6.0°
Reaches altitude 10° 18:20:38 10° 150° (SSE) 2,013 5.9 -6.4°
Maximum altitude 18:24:30 30° 90° (E) 1,150 4.4 -7.0°
Drops below altitude 10° 18:28:22 10° 29° (NNE) 2,018 5.9 -7.7°
Sets 18:30:49 0° 19° (NNE) 2,925 6.8 -8.1°
